Private Wetterstation Wechselburg
Wetterdaten: Montag, 23.05.2011
Datum Zeit Temp. +2m Bodentemp. Temp.+5cm Temp. Wind Windchill X Diff Temp. Feuchte +2m Feuchte +5cm Sonnenschein Luftdruck Regen Wind Richtung Richtung Sonnenschein UV Taupunkt Windchill Windben
23.05.2011 00:00 16,3 C 19,0 C 15,1 C 16,2 C 15,9 C 0,0 C 87 % 95 % 0 % 1016,9 hPa 0,0 l/m 2,6 km/h (1 Bft) SW 225 0 min 0,0 UV-I 14,1 C 15,9 C 1,9 km/h (1 Bft)
23.05.2011 00:09 16,3 C 19,0 C 15,1 C 16,2 C 15,9 C 0,0 C 86 % 95 % 0 % 1016,9 hPa 0,0 l/m 2,1 km/h (1 Bft) N 0 0 min 0,0 UV-I 14,0 C 15,9 C 0,0 km/h (0 Bft)
23.05.2011 00:15 16,3 C 19,0 C 15,1 C 16,1 C 15,6 C 0,0 C 87 % 95 % 0 % 1017,4 hPa 0,0 l/m 0,2 km/h (0 Bft) SW 225 0 min 0,0 UV-I 14,1 C 15,6 C 0,0 km/h (0 Bft)
23.05.2011 00:20 16,3 C 19,0 C 15,1 C 16,1 C 15,6 C 0,0 C 87 % 95 % 0 % 1017,4 hPa 0,0 l/m 0,8 km/h (0 Bft) S-SW 202 0 min 0,0 UV-I 14,1 C 15,6 C 0,0 km/h (0 Bft)
23.05.2011 00:25 16,3 C 19,0 C 15,0 C 16,1 C 15,6 C 0,0 C 87 % 95 % 0 % 1017,4 hPa 0,0 l/m 1,4 km/h (1 Bft) SW 225 0 min 0,0 UV-I 14,1 C 15,6 C 3,4 km/h (1 Bft)
23.05.2011 00:30 16,3 C 19,0 C 15,0 C 16,1 C 15,7 C 0,0 C 86 % 95 % 0 % 1017,6 hPa 0,0 l/m 1,1 km/h (1 Bft) W-NW 292 0 min 0,0 UV-I 14,0 C 15,7 C 0,0 km/h (0 Bft)
23.05.2011 00:35 16,3 C 19,0 C 15,1 C 16,1 C 15,6 C 0,0 C 86 % 95 % 0 % 1017,6 hPa 0,0 l/m 0,8 km/h (0 Bft) S 180 0 min 0,0 UV-I 14,0 C 15,6 C 5,3 km/h (1 Bft)
23.05.2011 00:40 16,2 C 19,0 C 15,0 C 16,0 C 15,5 C 0,0 C 87 % 95 % 0 % 1017,6 hPa 0,0 l/m 0,0 km/h (0 Bft) S 180 0 min 0,0 UV-I 14,0 C 15,5 C 0,0 km/h (0 Bft)
23.05.2011 00:45 16,1 C 19,0 C 14,9 C 15,9 C 15,4 C 0,0 C 87 % 95 % 0 % 1017,6 hPa 0,0 l/m 0,0 km/h (0 Bft) W 270 0 min 0,0 UV-I 13,9 C 15,4 C 0,0 km/h (0 Bft)
23.05.2011 00:50 16,3 C 18,9 C 15,0 C 16,0 C 15,5 C 0,0 C 87 % 95 % 0 % 1017,8 hPa 0,0 l/m 0,2 km/h (0 Bft) W-SW 247 0 min 0,0 UV-I 14,1 C 15,5 C 0,0 km/h (0 Bft)
23.05.2011 00:55 16,3 C 18,9 C 15,1 C 16,0 C 15,5 C 0,0 C 87 % 95 % 0 % 1017,8 hPa 0,0 l/m 0,6 km/h (0 Bft) W-SW 247 0 min 0,0 UV-I 14,1 C 15,5 C 2,4 km/h (1 Bft)
23.05.2011 01:00 16,2 C 18,9 C 15,0 C 16,0 C 15,5 C 0,0 C 87 % 95 % 0 % 1017,8 hPa 0,0 l/m 1,6 km/h (1 Bft) W-SW 247 0 min 0,0 UV-I 14,0 C 15,5 C 5,5 km/h (1 Bft)
23.05.2011 01:10 16,1 C 18,8 C 14,4 C 15,9 C 15,5 C 0,0 C 80 % 94 % 0 % 1018,7 hPa 0,0 l/m 6,6 km/h (2 Bft) N 0 0 min 0,0 UV-I 12,6 C 15,5 C 7,2 km/h (2 Bft)
23.05.2011 01:15 16,0 C 18,8 C 14,1 C 15,8 C 15,3 C 0,0 C 79 % 93 % 0 % 1018,7 hPa 0,0 l/m 6,4 km/h (2 Bft) N-NW 337 0 min 0,0 UV-I 12,4 C 15,3 C 16,9 km/h (3 Bft)
23.05.2011 01:20 15,9 C 18,8 C 13,9 C 15,6 C 14,9 C 0,0 C 76 % 92 % 0 % 1018,7 hPa 0,0 l/m 4,3 km/h (1 Bft) N-NO 22 0 min 0,0 UV-I 11,7 C 14,9 C 3,2 km/h (1 Bft)
23.05.2011 01:25 15,7 C 18,8 C 13,7 C 15,4 C 14,7 C 0,0 C 76 % 91 % 0 % 1018,7 hPa 0,0 l/m 3,9 km/h (1 Bft) S 180 0 min 0,0 UV-I 11,5 C 14,7 C 2,3 km/h (1 Bft)
23.05.2011 01:30 15,7 C 18,8 C 13,6 C 15,3 C 14,5 C 0,0 C 75 % 91 % 0 % 1019,1 hPa 0,0 l/m 3,2 km/h (1 Bft) O-SO 112 0 min 0,0 UV-I 11,3 C 14,5 C 3,4 km/h (1 Bft)
23.05.2011 01:35 15,6 C 18,7 C 13,5 C 15,2 C 14,4 C 0,0 C 75 % 91 % 0 % 1019,1 hPa 0,0 l/m 2,7 km/h (1 Bft) O-SO 112 0 min 0,0 UV-I 11,2 C 14,4 C 1,6 km/h (1 Bft)
23.05.2011 01:40 15,5 C 18,7 C 13,3 C 15,1 C 14,2 C 0,0 C 73 % 90 % 0 % 1019,1 hPa 0,0 l/m 2,9 km/h (1 Bft) SO 135 0 min 0,0 UV-I 10,7 C 14,2 C 2,9 km/h (1 Bft)
23.05.2011 01:45 15,4 C 18,7 C 13,3 C 15,0 C 14,1 C 0,0 C 72 % 90 % 0 % 1019,1 hPa 0,0 l/m 3,2 km/h (1 Bft) NO 45 0 min 0,0 UV-I 10,4 C 14,1 C 3,4 km/h (1 Bft)
23.05.2011 01:50 15,2 C 18,7 C 13,1 C 14,8 C 14,0 C 0,0 C 72 % 90 % 0 % 1019,8 hPa 0,0 l/m 2,7 km/h (1 Bft) S-SO 157 0 min 0,0 UV-I 10,2 C 14,0 C 0,0 km/h (0 Bft)
23.05.2011 01:55 15,2 C 18,7 C 13,1 C 14,7 C 13,8 C 0,0 C 72 % 90 % 0 % 1019,8 hPa 0,0 l/m 1,8 km/h (1 Bft) S-SO 157 0 min 0,0 UV-I 10,2 C 13,8 C 2,7 km/h (1 Bft)
23.05.2011 02:00 15,1 C 18,7 C 13,1 C 14,7 C 13,8 C 0,0 C 72 % 91 % 0 % 1019,8 hPa 0,0 l/m 1,3 km/h (1 Bft) SW 225 0 min 0,0 UV-I 10,1 C 13,8 C 0,0 km/h (0 Bft)
23.05.2011 02:10 15,1 C 18,6 C 12,9 C 14,6 C 13,6 C 0,0 C 72 % 89 % 0 % 1019,9 hPa 0,0 l/m 3,1 km/h (1 Bft) N 0 0 min 0,0 UV-I 10,1 C 13,6 C 10,9 km/h (2 Bft)
23.05.2011 02:15 15,1 C 18,6 C 12,8 C 14,6 C 13,6 C 0,0 C 72 % 89 % 0 % 1019,9 hPa 0,0 l/m 3,2 km/h (1 Bft) S-SO 157 0 min 0,0 UV-I 10,1 C 13,6 C 2,1 km/h (1 Bft)
23.05.2011 02:20 14,9 C 18,6 C 12,8 C 14,4 C 13,5 C 0,0 C 72 % 89 % 0 % 1019,9 hPa 0,0 l/m 2,4 km/h (1 Bft) S 180 0 min 0,0 UV-I 9,9 C 13,5 C 5,3 km/h (1 Bft)
23.05.2011 02:25 14,9 C 18,6 C 12,8 C 14,4 C 13,4 C 0,0 C 72 % 89 % 0 % 1019,9 hPa 0,0 l/m 1,6 km/h (1 Bft) SW 225 0 min 0,0 UV-I 9,9 C 13,4 C 0,0 km/h (0 Bft)
23.05.2011 02:30 14,9 C 18,6 C 12,8 C 14,4 C 13,4 C 0,0 C 72 % 89 % 0 % 1020,3 hPa 0,0 l/m 1,6 km/h (1 Bft) O 90 0 min 0,0 UV-I 9,9 C 13,4 C 0,0 km/h (0 Bft)
23.05.2011 02:35 14,9 C 18,6 C 12,8 C 14,4 C 13,4 C 0,0 C 72 % 89 % 0 % 1020,3 hPa 0,0 l/m 1,3 km/h (1 Bft) SW 225 0 min 0,0 UV-I 9,9 C 13,4 C 4,3 km/h (1 Bft)
23.05.2011 02:40 14,8 C 18,6 C 12,8 C 14,3 C 13,3 C 0,0 C 73 % 89 % 0 % 1020,3 hPa 0,0 l/m 1,0 km/h (0 Bft) S-SW 202 0 min 0,0 UV-I 10,0 C 13,3 C 0,0 km/h (0 Bft)
23.05.2011 02:45 14,8 C 18,5 C 12,8 C 14,3 C 13,2 C 0,0 C 74 % 89 % 0 % 1020,3 hPa 0,0 l/m 0,8 km/h (0 Bft) W-SW 247 0 min 0,0 UV-I 10,2 C 13,2 C 0,0 km/h (0 Bft)
23.05.2011 02:50 14,8 C 18,5 C 12,8 C 14,3 C 13,2 C 0,0 C 74 % 89 % 0 % 1020,7 hPa 0,0 l/m 0,6 km/h (0 Bft) S-SW 202 0 min 0,0 UV-I 10,2 C 13,2 C 1,8 km/h (1 Bft)
23.05.2011 02:55 14,8 C 18,5 C 12,8 C 14,3 C 13,2 C 0,0 C 75 % 89 % 0 % 1020,7 hPa 0,0 l/m 0,8 km/h (0 Bft) W-SW 247 0 min 0,0 UV-I 10,4 C 13,2 C 0,0 km/h (0 Bft)
23.05.2011 03:00 14,7 C 18,5 C 12,8 C 14,2 C 13,1 C 0,0 C 75 % 89 % 0 % 1020,7 hPa 0,0 l/m 0,5 km/h (0 Bft) S-SO 157 0 min 0,0 UV-I 10,3 C 13,1 C 2,6 km/h (1 Bft)
23.05.2011 03:10 14,7 C 18,4 C 12,8 C 14,1 C 13,0 C 0,0 C 76 % 89 % 0 % 1021,1 hPa 0,0 l/m 2,1 km/h (1 Bft) N 0 0 min 0,0 UV-I 10,5 C 13,0 C 2,1 km/h (1 Bft)
23.05.2011 03:15 14,7 C 18,4 C 12,8 C 14,1 C 12,9 C 0,0 C 76 % 89 % 0 % 1021,1 hPa 0,0 l/m 1,8 km/h (1 Bft) W-SW 247 0 min 0,0 UV-I 10,5 C 12,9 C 1,6 km/h (1 Bft)
23.05.2011 03:20 14,7 C 18,4 C 12,8 C 14,1 C 12,8 C 0,0 C 75 % 89 % 0 % 1021,1 hPa 0,0 l/m 1,9 km/h (1 Bft) S 180 0 min 0,0 UV-I 10,3 C 12,8 C 2,6 km/h (1 Bft)
23.05.2011 03:25 14,6 C 18,4 C 12,8 C 14,0 C 12,8 C 0,0 C 75 % 89 % 0 % 1021,1 hPa 0,0 l/m 1,8 km/h (1 Bft) S 180 0 min 0,0 UV-I 10,2 C 12,8 C 3,9 km/h (1 Bft)
23.05.2011 03:30 14,5 C 18,4 C 12,8 C 13,9 C 12,7 C 0,0 C 75 % 89 % 0 % 1021,3 hPa 0,0 l/m 1,8 km/h (1 Bft) S-SW 202 0 min 0,0 UV-I 10,1 C 12,7 C 1,8 km/h (1 Bft)
23.05.2011 03:35 14,5 C 18,4 C 12,5 C 13,9 C 12,7 C 0,0 C 75 % 89 % 0 % 1021,3 hPa 0,0 l/m 1,9 km/h (1 Bft) W-SW 247 0 min 0,0 UV-I 10,1 C 12,7 C 1,9 km/h (1 Bft)
23.05.2011 03:40 14,4 C 18,3 C 12,5 C 13,8 C 12,7 C 0,0 C 75 % 89 % 0 % 1021,3 hPa 0,0 l/m 2,6 km/h (1 Bft) SW 225 0 min 0,0 UV-I 10,0 C 12,7 C 3,9 km/h (1 Bft)
23.05.2011 03:45 14,4 C 18,3 C 12,5 C 13,8 C 12,7 C 0,0 C 75 % 89 % 0 % 1021,3 hPa 0,0 l/m 2,9 km/h (1 Bft) S-SW 202 0 min 0,0 UV-I 10,0 C 12,7 C 3,1 km/h (1 Bft)
23.05.2011 03:50 14,4 C 18,3 C 12,5 C 13,8 C 12,5 C 0,0 C 75 % 89 % 0 % 1021,4 hPa 0,0 l/m 2,3 km/h (1 Bft) S-SW 202 0 min 0,0 UV-I 10,0 C 12,5 C 2,1 km/h (1 Bft)
23.05.2011 03:55 14,4 C 18,3 C 12,4 C 13,7 C 12,4 C 0,0 C 75 % 89 % 0 % 1021,4 hPa 0,0 l/m 1,8 km/h (1 Bft) O-NO 67 0 min 0,0 UV-I 10,0 C 12,4 C 1,9 km/h (1 Bft)
23.05.2011 04:00 14,3 C 18,3 C 12,5 C 13,6 C 12,3 C 0,0 C 75 % 88 % 0 % 1021,4 hPa 0,0 l/m 1,6 km/h (1 Bft) S-SW 202 0 min 0,0 UV-I 9,9 C 12,3 C 1,6 km/h (1 Bft)
23.05.2011 04:10 14,2 C 18,2 C 12,5 C 13,5 C 12,2 C 0,0 C 76 % 89 % 0 % 1021,7 hPa 0,0 l/m 1,1 km/h (1 Bft) N 0 0 min 0,0 UV-I 10,0 C 12,2 C 2,9 km/h (1 Bft)
23.05.2011 04:15 14,2 C 18,3 C 12,4 C 13,5 C 12,1 C 0,0 C 76 % 89 % 0 % 1021,7 hPa 0,0 l/m 1,1 km/h (1 Bft) W-SW 247 0 min 0,0 UV-I 10,0 C 12,1 C 2,3 km/h (1 Bft)
23.05.2011 04:20 14,3 C 18,3 C 12,3 C 13,6 C 12,1 C 0,0 C 77 % 89 % 0 % 1021,7 hPa 0,0 l/m 1,8 km/h (1 Bft) S-SW 202 0 min 0,0 UV-I 10,3 C 12,1 C 3,2 km/h (1 Bft)
23.05.2011 04:25 14,2 C 18,3 C 12,3 C 13,5 C 12,1 C 0,0 C 77 % 90 % 0 % 1021,7 hPa 0,0 l/m 1,8 km/h (1 Bft) SW 225 0 min 0,0 UV-I 10,2 C 12,1 C 2,4 km/h (1 Bft)
23.05.2011 04:30 14,1 C 18,3 C 12,3 C 13,4 C 12,1 C 0,0 C 77 % 90 % 0 % 1021,9 hPa 0,0 l/m 1,9 km/h (1 Bft) SW 225 0 min 0,0 UV-I 10,1 C 12,1 C 1,9 km/h (1 Bft)
23.05.2011 04:35 14,1 C 18,3 C 12,3 C 13,4 C 12,1 C 0,0 C 77 % 90 % 0 % 1021,9 hPa 0,0 l/m 1,4 km/h (1 Bft) W-SW 247 0 min 0,0 UV-I 10,1 C 12,1 C 0,0 km/h (0 Bft)
23.05.2011 04:40 14,1 C 18,3 C 12,3 C 13,4 C 12,0 C 0,0 C 78 % 90 % 0 % 1021,9 hPa 0,0 l/m 0,6 km/h (0 Bft) SW 225 0 min 0,0 UV-I 10,3 C 12,0 C 1,6 km/h (1 Bft)
23.05.2011 04:45 14,0 C 18,2 C 12,3 C 13,3 C 11,9 C 0,0 C 78 % 90 % 0 % 1021,9 hPa 0,0 l/m 0,3 km/h (0 Bft) W-SW 247 0 min 0,0 UV-I 10,2 C 11,9 C 0,0 km/h (0 Bft)
23.05.2011 04:50 14,0 C 18,2 C 12,3 C 13,3 C 11,9 C 0,0 C 78 % 90 % 0 % 1021,9 hPa 0,0 l/m 0,3 km/h (0 Bft) S-SW 202 0 min 0,0 UV-I 10,2 C 11,9 C 1,6 km/h (1 Bft)
23.05.2011 04:55 14,0 C 18,2 C 12,3 C 13,3 C 11,8 C 0,0 C 79 % 90 % 0 % 1021,9 hPa 0,0 l/m 0,5 km/h (0 Bft) SW 225 0 min 0,0 UV-I 10,4 C 11,8 C 0,0 km/h (0 Bft)
23.05.2011 05:00 14,0 C 18,2 C 12,3 C 13,3 C 11,8 C 0,0 C 79 % 90 % 0 % 1021,9 hPa 0,0 l/m 1,3 km/h (1 Bft) N 360 0 min 0,0 UV-I 10,4 C 11,8 C 2,1 km/h (1 Bft)
23.05.2011 05:10 13,9 C 18,2 C 12,3 C 13,2 C 11,8 C 0,0 C 79 % 90 % 0 % 1022,1 hPa 0,0 l/m 1,0 km/h (0 Bft) N 0 0 min 0,0 UV-I 10,3 C 11,8 C 0,0 km/h (0 Bft)
23.05.2011 05:15 13,9 C 18,2 C 12,3 C 13,2 C 11,7 C 0,0 C 79 % 90 % 0 % 1022,1 hPa 0,0 l/m 0,5 km/h (0 Bft) S 180 0 min 0,0 UV-I 10,3 C 11,7 C 0,0 km/h (0 Bft)
23.05.2011 05:20 13,9 C 18,1 C 12,3 C 13,2 C 11,7 C 0,0 C 80 % 90 % 0 % 1022,1 hPa 0,0 l/m 0,2 km/h (0 Bft) S-SW 202 0 min 0,0 UV-I 10,5 C 11,7 C 0,0 km/h (0 Bft)
23.05.2011 05:25 13,9 C 18,1 C 12,3 C 13,2 C 11,7 C 0,0 C 80 % 90 % 0 % 1022,1 hPa 0,0 l/m 0,3 km/h (0 Bft) S 180 0 min 0,0 UV-I 10,5 C 11,7 C 0,0 km/h (0 Bft)
23.05.2011 05:30 13,8 C 18,1 C 12,3 C 13,0 C 11,5 C 0,0 C 80 % 90 % 0 % 1022,4 hPa 0,0 l/m 0,2 km/h (0 Bft) SW 225 0 min 0,0 UV-I 10,4 C 11,5 C 0,0 km/h (0 Bft)
23.05.2011 05:35 13,7 C 18,1 C 12,3 C 13,0 C 11,5 C 0,0 C 80 % 90 % 0 % 1022,4 hPa 0,0 l/m 0,2 km/h (0 Bft) SW 225 0 min 0,0 UV-I 10,3 C 11,5 C 0,0 km/h (0 Bft)
23.05.2011 05:40 13,5 C 18,1 C 12,3 C 12,8 C 11,3 C 0,0 C 80 % 90 % 0 % 1022,4 hPa 0,0 l/m 0,0 km/h (0 Bft) S-SO 157 0 min 0,0 UV-I 10,1 C 11,3 C 0,0 km/h (0 Bft)
23.05.2011 05:45 13,3 C 18,1 C 12,3 C 12,6 C 11,1 C 0,0 C 80 % 90 % 0 % 1022,4 hPa 0,0 l/m 0,0 km/h (0 Bft) S-SO 157 0 min 0,0 UV-I 9,9 C 11,1 C 0,0 km/h (0 Bft)
23.05.2011 05:50 13,3 C 18,1 C 12,3 C 12,5 C 10,8 C 0,0 C 81 % 90 % 0 % 1022,9 hPa 0,0 l/m 0,0 km/h (0 Bft) S-SO 157 0 min 0,0 UV-I 10,1 C 10,8 C 0,0 km/h (0 Bft)
23.05.2011 05:55 13,1 C 18,1 C 12,3 C 12,3 C 10,7 C 0,0 C 81 % 90 % 0 % 1022,9 hPa 0,0 l/m 0,0 km/h (0 Bft) S-SO 157 0 min 0,0 UV-I 9,9 C 10,7 C 0,0 km/h (0 Bft)
23.05.2011 06:00 13,2 C 18,1 C 12,3 C 12,3 C 10,5 C 0,0 C 82 % 90 % 0 % 1022,9 hPa 0,0 l/m 0,0 km/h (0 Bft) S-SO 157 0 min 0,0 UV-I 10,2 C 10,5 C 0,0 km/h (0 Bft)
23.05.2011 06:10 13,4 C 18,1 C 12,3 C 12,4 C 10,5 C 0,0 C 82 % 90 % 0 % 1022,8 hPa 0,0 l/m 0,0 km/h (0 Bft) N 0 0 min 0,0 UV-I 10,4 C 10,5 C 0,0 km/h (0 Bft)
23.05.2011 06:15 13,4 C 18,0 C 12,3 C 12,5 C 10,6 C 0,0 C 82 % 90 % 0 % 1022,8 hPa 0,0 l/m 0,0 km/h (0 Bft) S-SO 157 0 min 0,0 UV-I 10,4 C 10,6 C 0,0 km/h (0 Bft)
23.05.2011 06:20 13,8 C 17,9 C 12,3 C 12,8 C 10,7 C 0,0 C 83 % 90 % 0 % 1022,8 hPa 0,0 l/m 0,0 km/h (0 Bft) S 180 0 min 0,0 UV-I 11,0 C 10,7 C 0,0 km/h (0 Bft)
23.05.2011 06:25 14,3 C 17,9 C 12,3 C 13,1 C 10,7 C 0,0 C 81 % 90 % 0 % 1022,8 hPa 0,0 l/m 0,0 km/h (0 Bft) S 180 0 min 0,0 UV-I 11,1 C 10,7 C 1,8 km/h (1 Bft)
23.05.2011 06:30 14,3 C 17,9 C 12,3 C 13,2 C 10,9 C 0,0 C 80 % 90 % 0 % 1022,8 hPa 0,0 l/m 0,2 km/h (0 Bft) S 180 0 min 0,0 UV-I 10,9 C 10,9 C 2,3 km/h (1 Bft)
23.05.2011 06:35 14,2 C 17,8 C 12,3 C 13,2 C 11,1 C 0,0 C 80 % 90 % 0 % 1022,8 hPa 0,0 l/m 0,5 km/h (0 Bft) S 180 0 min 0,0 UV-I 10,8 C 11,1 C 1,6 km/h (1 Bft)
23.05.2011 06:40 14,4 C 17,8 C 12,3 C 13,4 C 11,3 C 0,0 C 79 % 90 % 0 % 1022,8 hPa 0,0 l/m 0,5 km/h (0 Bft) S-SW 202 0 min 0,0 UV-I 10,8 C 11,3 C 0,0 km/h (0 Bft)
23.05.2011 06:45 14,5 C 17,8 C 12,3 C 13,5 C 11,4 C 0,0 C 79 % 90 % 0 % 1022,8 hPa 0,0 l/m 0,0 km/h (0 Bft) S-SO 157 0 min 0,0 UV-I 10,9 C 11,4 C 0,0 km/h (0 Bft)
23.05.2011 06:50 16,5 C 17,8 C 12,3 C 14,9 C 11,8 C 0,0 C 76 % 90 % 0 % 1022,8 hPa 0,0 l/m 0,0 km/h (0 Bft) NO 45 0 min 0,0 UV-I 12,3 C 11,8 C 0,0 km/h (0 Bft)
23.05.2011 06:55 18,1 C 17,8 C 12,3 C 16,4 C 13,1 C 0,0 C 72 % 90 % 0 % 1022,8 hPa 0,0 l/m 0,0 km/h (0 Bft) S-SW 202 0 min 0,0 UV-I 13,0 C 13,1 C 0,0 km/h (0 Bft)
23.05.2011 07:00 19,0 C 17,8 C 12,3 C 17,7 C 15,1 C 0,0 C 69 % 90 % 0 % 1022,8 hPa 0,0 l/m 0,2 km/h (0 Bft) SW 225 0 min 0,0 UV-I 13,2 C 15,1 C 0,0 km/h (0 Bft)
23.05.2011 07:10 18,8 C 17,8 C 12,3 C 18,6 C 18,2 C 0,0 C 66 % 90 % 0 % 1023,4 hPa 0,0 l/m 0,0 km/h (0 Bft) N 0 0 min 0,1 UV-I 12,3 C 18,2 C 0,0 km/h (0 Bft)
23.05.2011 07:15 18,8 C 17,7 C 12,3 C 19,2 C 19,2 C 0,4 C 66 % 90 % 11 % 1023,4 hPa 0,0 l/m 0,0 km/h (0 Bft) S-SO 157 0 min 0,1 UV-I 12,3 C 19,2 C 0,0 km/h (0 Bft)
23.05.2011 07:20 17,7 C 17,7 C 12,3 C 20,4 C 20,4 C 2,7 C 68 % 90 % 71 % 1023,4 hPa 0,0 l/m 0,0 km/h (0 Bft) S 180 0 min 0,1 UV-I 11,7 C 20,4 C 0,0 km/h (0 Bft)
23.05.2011 07:25 17,2 C 17,7 C 12,3 C 21,0 C 21,0 C 3,8 C 68 % 90 % 100 % 1023,4 hPa 0,0 l/m 0,0 km/h (0 Bft) SW 225 5 min 0,1 UV-I 11,2 C 21,0 C 0,0 km/h (0 Bft)
23.05.2011 07:30 17,0 C 17,7 C 12,3 C 21,5 C 21,5 C 4,5 C 70 % 90 % 100 % 1023,6 hPa 0,0 l/m 0,0 km/h (0 Bft) W-SW 247 5 min 0,2 UV-I 11,5 C 21,5 C 0,0 km/h (0 Bft)
23.05.2011 07:35 16,9 C 17,7 C 12,3 C 21,7 C 21,7 C 4,8 C 70 % 90 % 100 % 1023,6 hPa 0,0 l/m 0,2 km/h (0 Bft) W-SW 247 5 min 0,2 UV-I 11,4 C 21,7 C 0,0 km/h (0 Bft)
23.05.2011 07:40 16,7 C 17,7 C 12,3 C 21,4 C 21,4 C 4,7 C 70 % 90 % 100 % 1023,6 hPa 0,0 l/m 0,5 km/h (0 Bft) S 180 5 min 0,2 UV-I 11,2 C 21,4 C 3,4 km/h (1 Bft)
23.05.2011 07:45 16,8 C 17,6 C 12,3 C 21,1 C 21,1 C 4,3 C 69 % 90 % 100 % 1023,6 hPa 0,0 l/m 0,6 km/h (0 Bft) S 180 5 min 0,2 UV-I 11,1 C 21,1 C 0,0 km/h (0 Bft)
23.05.2011 07:50 17,2 C 17,7 C 12,3 C 21,2 C 21,2 C 4,0 C 69 % 90 % 100 % 1024,0 hPa 0,0 l/m 0,6 km/h (0 Bft) W-SW 247 5 min 0,2 UV-I 11,5 C 21,2 C 0,0 km/h (0 Bft)
23.05.2011 07:55 17,7 C 17,7 C 12,3 C 21,2 C 21,2 C 3,5 C 66 % 90 % 92 % 1024,0 hPa 0,0 l/m 0,3 km/h (0 Bft) SW 225 5 min 0,3 UV-I 11,3 C 21,2 C 0,0 km/h (0 Bft)
23.05.2011 08:00 17,3 C 17,7 C 12,3 C 21,4 C 21,4 C 4,1 C 66 % 90 % 100 % 1024,0 hPa 0,0 l/m 0,8 km/h (0 Bft) SW 225 5 min 0,3 UV-I 10,9 C 21,4 C 2,4 km/h (1 Bft)
23.05.2011 08:10 17,7 C 17,6 C 12,3 C 22,0 C 22,0 C 4,3 C 65 % 90 % 100 % 1024,0 hPa 0,0 l/m 1,0 km/h (0 Bft) N 0 10 min 0,4 UV-I 11,0 C 22,0 C 3,4 km/h (1 Bft)
23.05.2011 08:15 17,5 C 17,6 C 12,3 C 21,5 C 21,5 C 4,0 C 64 % 90 % 100 % 1024,0 hPa 0,0 l/m 1,1 km/h (1 Bft) W-SW 247 5 min 0,4 UV-I 10,6 C 21,5 C 2,3 km/h (1 Bft)
23.05.2011 08:20 17,1 C 17,6 C 12,3 C 20,6 C 20,6 C 3,5 C 64 % 90 % 92 % 1024,0 hPa 0,0 l/m 2,3 km/h (1 Bft) S 180 5 min 0,4 UV-I 10,2 C 20,6 C 4,7 km/h (1 Bft)
23.05.2011 08:25 17,3 C 17,6 C 12,3 C 20,2 C 20,2 C 2,9 C 64 % 90 % 76 % 1024,0 hPa 0,0 l/m 2,1 km/h (1 Bft) S 180 0 min 0,5 UV-I 10,4 C 20,2 C 1,6 km/h (1 Bft)
23.05.2011 08:30 17,7 C 17,6 C 12,3 C 20,2 C 20,2 C 2,5 C 62 % 90 % 66 % 1024,1 hPa 0,0 l/m 1,4 km/h (1 Bft) O-NO 67 0 min 0,5 UV-I 10,3 C 20,2 C 0,0 km/h (0 Bft)
23.05.2011 08:35 17,7 C 17,6 C 12,3 C 20,2 C 20,2 C 2,5 C 63 % 90 % 66 % 1024,1 hPa 0,0 l/m 1,0 km/h (0 Bft) SW 225 0 min 0,6 UV-I 10,6 C 20,2 C 3,4 km/h (1 Bft)
23.05.2011 08:40 18,6 C 17,5 C 12,3 C 20,4 C 20,4 C 1,8 C 60 % 90 % 47 % 1024,1 hPa 0,0 l/m 2,1 km/h (1 Bft) W 270 0 min 0,7 UV-I 10,7 C 20,4 C 3,4 km/h (1 Bft)
23.05.2011 08:45 18,1 C 17,5 C 12,3 C 20,8 C 20,8 C 2,7 C 59 % 90 % 71 % 1024,1 hPa 0,0 l/m 2,1 km/h (1 Bft) W-SW 247 0 min 0,7 UV-I 10,0 C 20,8 C 1,9 km/h (1 Bft)
23.05.2011 08:50 17,9 C 17,5 C 12,3 C 21,6 C 21,6 C 3,7 C 60 % 90 % 97 % 1024,2 hPa 0,0 l/m 0,8 km/h (0 Bft) N-NO 22 5 min 0,7 UV-I 10,0 C 21,6 C 0,0 km/h (0 Bft)
23.05.2011 08:55 17,5 C 17,5 C 12,3 C 22,1 C 22,1 C 4,6 C 61 % 90 % 100 % 1024,2 hPa 0,0 l/m 0,8 km/h (0 Bft) SW 225 5 min 0,9 UV-I 9,9 C 22,1 C 3,5 km/h (1 Bft)
23.05.2011 09:00 17,2 C 17,5 C 12,3 C 22,2 C 22,2 C 5,0 C 61 % 90 % 100 % 1024,2 hPa 0,0 l/m 0,6 km/h (0 Bft) S 180 5 min 0,9 UV-I 9,6 C 22,2 C 2,6 km/h (1 Bft)
23.05.2011 09:10 17,2 C 17,5 C 12,3 C 22,2 C 22,2 C 5,0 C 60 % 90 % 100 % 1024,1 hPa 0,0 l/m 1,3 km/h (1 Bft) N 0 10 min 1,1 UV-I 9,4 C 22,2 C 1,6 km/h (1 Bft)
23.05.2011 09:15 17,1 C 17,5 C 12,3 C 22,4 C 22,4 C 5,3 C 60 % 90 % 100 % 1024,1 hPa 0,0 l/m 1,1 km/h (1 Bft) W-SW 247 5 min 1,1 UV-I 9,3 C 22,4 C 2,4 km/h (1 Bft)
23.05.2011 09:20 17,1 C 17,5 C 12,3 C 22,7 C 22,7 C 5,6 C 59 % 90 % 100 % 1024,1 hPa 0,0 l/m 0,8 km/h (0 Bft) W-SW 247 5 min 1,1 UV-I 9,0 C 22,7 C 3,5 km/h (1 Bft)
23.05.2011 09:25 17,1 C 17,5 C 12,3 C 22,5 C 22,5 C 5,4 C 59 % 90 % 100 % 1024,1 hPa 0,0 l/m 1,4 km/h (1 Bft) SW 225 5 min 1,3 UV-I 9,0 C 22,5 C 2,4 km/h (1 Bft)
23.05.2011 09:30 17,0 C 17,5 C 12,3 C 22,5 C 22,5 C 5,5 C 58 % 90 % 100 % 1024,4 hPa 0,0 l/m 1,9 km/h (1 Bft) NO 45 5 min 1,4 UV-I 8,7 C 22,5 C 0,0 km/h (0 Bft)
23.05.2011 09:35 17,0 C 17,5 C 12,3 C 22,6 C 22,6 C 5,6 C 59 % 90 % 100 % 1024,4 hPa 0,0 l/m 1,3 km/h (1 Bft) NW 315 5 min 1,4 UV-I 8,9 C 22,6 C 1,8 km/h (1 Bft)
23.05.2011 09:40 17,1 C 17,5 C 12,3 C 23,4 C 23,4 C 6,3 C 60 % 90 % 100 % 1024,4 hPa 0,0 l/m 0,6 km/h (0 Bft) O-NO 67 5 min 1,3 UV-I 9,3 C 23,4 C 2,4 km/h (1 Bft)
23.05.2011 09:45 17,1 C 17,5 C 12,3 C 23,2 C 23,2 C 6,1 C 59 % 90 % 100 % 1024,4 hPa 0,0 l/m 0,8 km/h (0 Bft) S 180 5 min 1,0 UV-I 9,0 C 23,2 C 1,9 km/h (1 Bft)
23.05.2011 09:50 17,1 C 17,5 C 12,3 C 23,9 C 23,9 C 6,8 C 58 % 90 % 100 % 1025,1 hPa 0,0 l/m 1,0 km/h (0 Bft) SO 135 5 min 1,0 UV-I 8,8 C 23,9 C 0,0 km/h (0 Bft)
23.05.2011 09:55 17,1 C 17,5 C 12,3 C 24,1 C 24,1 C 7,0 C 59 % 90 % 100 % 1025,1 hPa 0,0 l/m 1,1 km/h (1 Bft) NO 45 5 min 0,9 UV-I 9,0 C 24,1 C 0,0 km/h (0 Bft)
23.05.2011 10:00 17,3 C 17,5 C 12,3 C 24,4 C 24,4 C 7,1 C 59 % 90 % 100 % 1025,1 hPa 0,0 l/m 1,0 km/h (0 Bft) SW 225 5 min 1,0 UV-I 9,2 C 24,4 C 3,1 km/h (1 Bft)
23.05.2011 10:10 17,4 C 17,5 C 12,3 C 23,7 C 23,7 C 6,3 C 58 % 90 % 100 % 1024,8 hPa 0,0 l/m 1,8 km/h (1 Bft) N 0 10 min 1,0 UV-I 9,1 C 23,7 C 0,0 km/h (0 Bft)
23.05.2011 10:15 17,3 C 17,5 C 12,3 C 23,8 C 23,8 C 6,5 C 58 % 90 % 100 % 1024,8 hPa 0,0 l/m 1,6 km/h (1 Bft) NW 315 5 min 1,1 UV-I 9,0 C 23,8 C 0,0 km/h (0 Bft)
23.05.2011 10:20 17,5 C 17,5 C 12,3 C 24,4 C 24,4 C 6,9 C 58 % 90 % 100 % 1024,8 hPa 0,0 l/m 0,6 km/h (0 Bft) W 270 5 min 1,2 UV-I 9,1 C 24,4 C 1,9 km/h (1 Bft)
23.05.2011 10:25 17,7 C 17,5 C 12,3 C 24,1 C 24,1 C 6,4 C 58 % 90 % 100 % 1024,8 hPa 0,0 l/m 1,6 km/h (1 Bft) O-NO 67 5 min 1,2 UV-I 9,3 C 24,1 C 2,1 km/h (1 Bft)
23.05.2011 10:30 17,7 C 17,5 C 12,3 C 24,3 C 24,3 C 6,6 C 58 % 90 % 100 % 1024,8 hPa 0,0 l/m 1,8 km/h (1 Bft) SW 225 5 min 1,7 UV-I 9,3 C 24,3 C 7,2 km/h (2 Bft)
23.05.2011 10:35 17,9 C 17,5 C 12,3 C 23,9 C 23,9 C 6,0 C 56 % 90 % 100 % 1024,8 hPa 0,0 l/m 2,4 km/h (1 Bft) S 180 5 min 2,3 UV-I 9,0 C 23,9 C 4,0 km/h (1 Bft)
23.05.2011 10:40 17,9 C 17,5 C 12,3 C 23,7 C 23,7 C 5,8 C 57 % 90 % 100 % 1024,8 hPa 0,0 l/m 2,3 km/h (1 Bft) S 180 5 min 2,4 UV-I 9,3 C 23,7 C 1,8 km/h (1 Bft)
23.05.2011 10:45 17,8 C 17,5 C 12,3 C 23,9 C 23,9 C 6,1 C 57 % 90 % 100 % 1024,8 hPa 0,0 l/m 1,6 km/h (1 Bft) S 180 5 min 2,4 UV-I 9,2 C 23,9 C 3,2 km/h (1 Bft)
23.05.2011 10:50 17,9 C 17,5 C 12,3 C 23,5 C 23,5 C 5,6 C 56 % 90 % 100 % 1024,9 hPa 0,0 l/m 1,9 km/h (1 Bft) SO 135 5 min 2,5 UV-I 9,0 C 23,5 C 0,0 km/h (0 Bft)
23.05.2011 10:55 17,9 C 17,5 C 12,3 C 23,5 C 23,5 C 5,6 C 56 % 90 % 100 % 1024,9 hPa 0,0 l/m 2,7 km/h (1 Bft) SW 225 5 min 1,6 UV-I 9,0 C 23,5 C 2,9 km/h (1 Bft)
23.05.2011 11:00 17,7 C 17,5 C 12,3 C 22,2 C 22,2 C 4,5 C 56 % 90 % 100 % 1024,9 hPa 0,0 l/m 2,3 km/h (1 Bft) W-SW 247 5 min 1,4 UV-I 8,8 C 22,2 C 1,8 km/h (1 Bft)
23.05.2011 11:10 17,5 C 17,5 C 12,3 C 19,5 C 19,5 C 2,0 C 56 % 90 % 53 % 1024,8 hPa 0,0 l/m 1,3 km/h (1 Bft) N 0 0 min 1,4 UV-I 8,6 C 19,5 C 2,4 km/h (1 Bft)
23.05.2011 11:15 17,6 C 17,5 C 12,3 C 19,2 C 19,2 C 1,6 C 55 % 90 % 42 % 1024,8 hPa 0,0 l/m 1,6 km/h (1 Bft) N-NO 22 0 min 1,5 UV-I 8,5 C 19,2 C 0,0 km/h (0 Bft)
23.05.2011 11:20 17,9 C 17,5 C 12,3 C 21,1 C 21,1 C 3,2 C 54 % 90 % 84 % 1024,8 hPa 0,0 l/m 1,4 km/h (1 Bft) NO 45 0 min 1,5 UV-I 8,5 C 21,1 C 2,7 km/h (1 Bft)
23.05.2011 11:25 18,0 C 17,4 C 12,3 C 21,7 C 21,7 C 3,7 C 53 % 90 % 97 % 1024,8 hPa 0,0 l/m 1,4 km/h (1 Bft) NW 315 5 min 1,5 UV-I 8,3 C 21,7 C 3,4 km/h (1 Bft)
23.05.2011 11:30 18,3 C 17,4 C 12,3 C 22,6 C 22,6 C 4,3 C 53 % 90 % 100 % 1024,6 hPa 0,0 l/m 2,7 km/h (1 Bft) S-SO 157 5 min 1,5 UV-I 8,6 C 22,6 C 5,0 km/h (1 Bft)
23.05.2011 11:35 18,3 C 17,4 C 12,3 C 22,7 C 22,7 C 4,4 C 50 % 90 % 100 % 1024,6 hPa 0,0 l/m 2,6 km/h (1 Bft) N-NO 22 5 min 1,5 UV-I 7,7 C 22,7 C 4,8 km/h (1 Bft)
23.05.2011 11:40 17,9 C 17,4 C 12,3 C 21,3 C 21,3 C 3,4 C 54 % 90 % 89 % 1024,6 hPa 0,0 l/m 2,6 km/h (1 Bft) SW 225 5 min 1,5 UV-I 8,5 C 21,3 C 3,5 km/h (1 Bft)
23.05.2011 11:45 17,9 C 17,4 C 12,3 C 20,3 C 20,3 C 2,4 C 54 % 90 % 63 % 1024,6 hPa 0,0 l/m 2,7 km/h (1 Bft) SW 225 0 min 1,5 UV-I 8,5 C 20,3 C 0,0 km/h (0 Bft)
23.05.2011 11:50 18,1 C 17,4 C 12,3 C 21,0 C 21,0 C 2,9 C 55 % 90 % 76 % 1024,4 hPa 0,0 l/m 2,1 km/h (1 Bft) S-SW 202 0 min 1,6 UV-I 8,9 C 21,0 C 3,2 km/h (1 Bft)
23.05.2011 11:55 18,4 C 17,4 C 12,3 C 21,6 C 21,6 C 3,2 C 55 % 90 % 84 % 1024,4 hPa 0,0 l/m 1,8 km/h (1 Bft) SW 225 0 min 2,0 UV-I 9,2 C 21,6 C 7,6 km/h (2 Bft)
23.05.2011 12:00 18,5 C 17,4 C 12,3 C 22,1 C 22,1 C 3,6 C 53 % 90 % 95 % 1024,4 hPa 0,0 l/m 3,1 km/h (1 Bft) W-SW 247 5 min 2,6 UV-I 8,7 C 22,1 C 2,3 km/h (1 Bft)
23.05.2011 12:10 18,7 C 17,5 C 12,3 C 22,7 C 22,7 C 4,0 C 54 % 90 % 100 % 1025,1 hPa 0,0 l/m 3,1 km/h (1 Bft) N 0 10 min 2,5 UV-I 9,2 C 22,7 C 4,5 km/h (1 Bft)
23.05.2011 12:15 18,8 C 17,5 C 12,3 C 22,9 C 22,9 C 4,1 C 52 % 90 % 100 % 1025,1 hPa 0,0 l/m 3,7 km/h (1 Bft) SW 225 5 min 3,3 UV-I 8,7 C 22,9 C 5,5 km/h (1 Bft)
23.05.2011 12:20 19,1 C 17,5 C 12,3 C 22,9 C 22,9 C 3,8 C 52 % 90 % 100 % 1025,1 hPa 0,0 l/m 4,3 km/h (1 Bft) W-SW 247 5 min 3,5 UV-I 9,0 C 22,9 C 7,6 km/h (2 Bft)
23.05.2011 12:25 19,1 C 17,5 C 12,3 C 22,9 C 22,9 C 3,8 C 51 % 90 % 100 % 1025,1 hPa 0,0 l/m 4,3 km/h (1 Bft) S-SW 202 5 min 3,6 UV-I 8,7 C 22,9 C 9,8 km/h (2 Bft)
23.05.2011 12:30 19,1 C 17,5 C 12,3 C 22,9 C 22,9 C 3,8 C 51 % 90 % 100 % 1024,2 hPa 0,0 l/m 3,4 km/h (1 Bft) O-SO 112 5 min 3,6 UV-I 8,7 C 22,9 C 2,7 km/h (1 Bft)
23.05.2011 12:35 19,1 C 17,5 C 12,3 C 22,9 C 22,9 C 3,8 C 50 % 90 % 100 % 1024,2 hPa 0,0 l/m 3,1 km/h (1 Bft) W-SW 247 5 min 3,6 UV-I 8,4 C 22,9 C 6,4 km/h (2 Bft)
23.05.2011 12:40 19,3 C 17,5 C 12,3 C 23,2 C 23,2 C 3,9 C 49 % 90 % 100 % 1024,2 hPa 0,0 l/m 2,7 km/h (1 Bft) S 180 5 min 3,7 UV-I 8,3 C 23,2 C 5,8 km/h (2 Bft)
23.05.2011 12:45 19,3 C 17,5 C 12,3 C 23,1 C 23,1 C 3,8 C 51 % 90 % 100 % 1024,2 hPa 0,0 l/m 3,7 km/h (1 Bft) W 270 5 min 3,8 UV-I 8,9 C 23,1 C 6,1 km/h (2 Bft)
23.05.2011 12:50 19,3 C 17,5 C 12,3 C 23,0 C 23,0 C 3,7 C 50 % 90 % 97 % 1024,1 hPa 0,0 l/m 3,9 km/h (1 Bft) S 180 5 min 3,8 UV-I 8,6 C 23,0 C 3,9 km/h (1 Bft)
23.05.2011 12:55 19,5 C 17,5 C 12,3 C 23,1 C 23,1 C 3,6 C 50 % 90 % 95 % 1024,1 hPa 0,0 l/m 3,1 km/h (1 Bft) W-SW 247 5 min 3,8 UV-I 8,8 C 23,1 C 6,1 km/h (2 Bft)
23.05.2011 13:00 19,5 C 17,5 C 12,3 C 22,9 C 22,9 C 3,4 C 51 % 90 % 89 % 1024,1 hPa 0,0 l/m 4,3 km/h (1 Bft) SW 225 5 min 3,8 UV-I 9,1 C 22,9 C 6,9 km/h (2 Bft)
23.05.2011 13:10 19,6 C 17,5 C 12,3 C 22,9 C 22,9 C 3,3 C 48 % 90 % 87 % 1024,1 hPa 0,0 l/m 5,1 km/h (1 Bft) N 0 10 min 3,9 UV-I 8,3 C 22,9 C 7,2 km/h (2 Bft)
23.05.2011 13:15 19,6 C 17,5 C 12,3 C 22,6 C 22,6 C 3,0 C 49 % 90 % 79 % 1024,1 hPa 0,0 l/m 5,6 km/h (1 Bft) SW 225 0 min 3,5 UV-I 8,6 C 22,6 C 7,6 km/h (2 Bft)
23.05.2011 13:20 19,6 C 17,6 C 12,3 C 22,9 C 22,9 C 3,3 C 50 % 90 % 87 % 1024,1 hPa 0,0 l/m 3,4 km/h (1 Bft) S 180 5 min 3,6 UV-I 8,9 C 22,9 C 2,4 km/h (1 Bft)
23.05.2011 13:25 19,7 C 17,6 C 12,3 C 23,6 C 23,6 C 3,9 C 50 % 90 % 100 % 1024,1 hPa 0,0 l/m 2,1 km/h (1 Bft) S 180 5 min 3,6 UV-I 9,0 C 23,6 C 2,6 km/h (1 Bft)
23.05.2011 13:30 19,7 C 17,6 C 12,3 C 23,5 C 23,5 C 3,8 C 49 % 90 % 100 % 1024,1 hPa 0,0 l/m 3,2 km/h (1 Bft) SW 225 5 min 3,7 UV-I 8,7 C 23,5 C 3,2 km/h (1 Bft)
23.05.2011 13:35 19,6 C 17,6 C 12,3 C 23,6 C 23,6 C 4,0 C 49 % 90 % 100 % 1024,1 hPa 0,0 l/m 4,0 km/h (1 Bft) S 180 5 min 3,6 UV-I 8,6 C 23,6 C 1,9 km/h (1 Bft)
23.05.2011 13:40 19,7 C 17,5 C 12,3 C 23,6 C 23,6 C 3,9 C 49 % 90 % 100 % 1024,1 hPa 0,0 l/m 2,9 km/h (1 Bft) S-SW 202 5 min 3,6 UV-I 8,7 C 23,6 C 5,5 km/h (1 Bft)
23.05.2011 13:45 19,8 C 17,5 C 12,3 C 23,6 C 23,6 C 3,8 C 48 % 90 % 100 % 1024,1 hPa 0,0 l/m 2,9 km/h (1 Bft) NW 315 5 min 3,7 UV-I 8,5 C 23,6 C 3,4 km/h (1 Bft)
23.05.2011 13:50 19,8 C 17,5 C 12,3 C 23,9 C 23,9 C 4,1 C 50 % 90 % 100 % 1023,9 hPa 0,0 l/m 3,5 km/h (1 Bft) SW 225 5 min 3,7 UV-I 9,1 C 23,9 C 6,8 km/h (2 Bft)
23.05.2011 13:55 20,0 C 17,5 C 12,3 C 23,6 C 23,6 C 3,6 C 49 % 90 % 95 % 1023,9 hPa 0,0 l/m 4,5 km/h (1 Bft) SW 225 5 min 3,6 UV-I 9,0 C 23,6 C 8,7 km/h (2 Bft)
23.05.2011 14:00 20,0 C 17,5 C 12,3 C 23,1 C 23,1 C 3,1 C 49 % 90 % 82 % 1023,9 hPa 0,0 l/m 6,0 km/h (2 Bft) W-SW 247 0 min 3,7 UV-I 9,0 C 23,1 C 7,1 km/h (2 Bft)
23.05.2011 14:10 20,1 C 17,6 C 12,3 C 23,1 C 23,1 C 3,0 C 49 % 90 % 79 % 1023,7 hPa 0,0 l/m 5,0 km/h (1 Bft) N 0 0 min 3,6 UV-I 9,0 C 23,1 C 3,2 km/h (1 Bft)
23.05.2011 14:15 20,3 C 17,6 C 12,3 C 23,5 C 23,5 C 3,2 C 47 % 90 % 84 % 1023,7 hPa 0,0 l/m 3,4 km/h (1 Bft) O-SO 112 0 min 3,7 UV-I 8,6 C 23,5 C 2,1 km/h (1 Bft)
23.05.2011 14:20 20,4 C 17,6 C 12,3 C 24,2 C 24,2 C 3,8 C 48 % 90 % 100 % 1023,7 hPa 0,0 l/m 2,3 km/h (1 Bft) W-SW 247 5 min 3,6 UV-I 9,0 C 24,2 C 2,9 km/h (1 Bft)
23.05.2011 14:25 20,5 C 17,6 C 12,3 C 24,5 C 24,5 C 4,0 C 48 % 90 % 100 % 1023,7 hPa 0,0 l/m 2,3 km/h (1 Bft) S-SW 202 5 min 3,6 UV-I 9,1 C 24,5 C 0,0 km/h (0 Bft)
23.05.2011 14:30 20,7 C 17,6 C 12,3 C 25,1 C 25,1 C 4,4 C 48 % 90 % 100 % 1023,5 hPa 0,0 l/m 1,1 km/h (1 Bft) SW 225 5 min 3,5 UV-I 9,3 C 25,1 C 2,9 km/h (1 Bft)
23.05.2011 14:35 20,7 C 17,6 C 12,3 C 25,3 C 25,3 C 4,6 C 46 % 90 % 100 % 1023,5 hPa 0,0 l/m 1,8 km/h (1 Bft) N-NO 22 5 min 3,5 UV-I 8,7 C 25,3 C 4,5 km/h (1 Bft)
23.05.2011 14:40 20,7 C 17,6 C 12,3 C 24,9 C 24,9 C 4,2 C 47 % 90 % 100 % 1023,5 hPa 0,0 l/m 3,7 km/h (1 Bft) NW 315 5 min 3,5 UV-I 9,0 C 24,9 C 4,0 km/h (1 Bft)
23.05.2011 14:45 20,6 C 17,7 C 12,3 C 24,9 C 24,9 C 4,3 C 48 % 90 % 100 % 1023,5 hPa 0,0 l/m 3,7 km/h (1 Bft) SW 225 5 min 3,3 UV-I 9,2 C 24,9 C 7,2 km/h (2 Bft)
23.05.2011 14:50 20,9 C 17,7 C 12,3 C 24,8 C 24,8 C 3,9 C 46 % 90 % 100 % 1023,1 hPa 0,0 l/m 2,7 km/h (1 Bft) W-SW 247 5 min 3,2 UV-I 8,8 C 24,8 C 1,8 km/h (1 Bft)
23.05.2011 14:55 21,0 C 17,7 C 12,3 C 25,0 C 25,0 C 4,0 C 47 % 90 % 100 % 1023,1 hPa 0,0 l/m 2,3 km/h (1 Bft) S-SO 157 5 min 3,1 UV-I 9,3 C 25,0 C 1,6 km/h (1 Bft)
23.05.2011 15:00 21,1 C 17,7 C 12,3 C 25,4 C 25,4 C 4,3 C 47 % 90 % 100 % 1023,1 hPa 0,0 l/m 2,3 km/h (1 Bft) S 180 5 min 3,1 UV-I 9,3 C 25,4 C 5,5 km/h (1 Bft)
23.05.2011 15:10 21,2 C 17,8 C 12,3 C 24,8 C 24,8 C 3,6 C 46 % 90 % 95 % 1022,7 hPa 0,0 l/m 5,0 km/h (1 Bft) N 0 10 min 2,7 UV-I 9,1 C 24,8 C 6,0 km/h (2 Bft)
23.05.2011 15:15 21,2 C 17,8 C 12,3 C 24,8 C 24,8 C 3,6 C 46 % 90 % 95 % 1022,7 hPa 0,0 l/m 4,3 km/h (1 Bft) S-SO 157 5 min 2,6 UV-I 9,1 C 24,8 C 2,6 km/h (1 Bft)
23.05.2011 15:20 21,3 C 17,8 C 12,3 C 24,7 C 24,7 C 3,4 C 46 % 90 % 89 % 1022,7 hPa 0,0 l/m 4,3 km/h (1 Bft) W 270 5 min 2,6 UV-I 9,2 C 24,7 C 6,3 km/h (2 Bft)
23.05.2011 15:25 21,3 C 17,8 C 12,3 C 24,8 C 24,8 C 3,5 C 46 % 90 % 92 % 1022,7 hPa 0,0 l/m 4,2 km/h (1 Bft) S 180 5 min 2,6 UV-I 9,2 C 24,8 C 5,1 km/h (1 Bft)
23.05.2011 15:30 21,5 C 17,9 C 12,3 C 25,1 C 25,1 C 3,6 C 47 % 90 % 95 % 1022,6 hPa 0,0 l/m 3,5 km/h (1 Bft) W 270 5 min 2,6 UV-I 9,7 C 25,1 C 3,9 km/h (1 Bft)
23.05.2011 15:35 21,6 C 17,9 C 12,3 C 25,1 C 25,1 C 3,5 C 47 % 90 % 92 % 1022,6 hPa 0,0 l/m 3,5 km/h (1 Bft) O 90 5 min 2,6 UV-I 9,8 C 25,1 C 5,1 km/h (1 Bft)
23.05.2011 15:40 21,6 C 17,9 C 12,3 C 25,1 C 25,1 C 3,5 C 45 % 90 % 92 % 1022,6 hPa 0,0 l/m 3,7 km/h (1 Bft) S-SW 202 5 min 2,5 UV-I 9,2 C 25,1 C 7,6 km/h (2 Bft)
23.05.2011 15:45 21,6 C 18,0 C 12,3 C 24,9 C 24,9 C 3,3 C 47 % 90 % 87 % 1022,6 hPa 0,0 l/m 4,2 km/h (1 Bft) SW 225 5 min 2,4 UV-I 9,8 C 24,9 C 5,8 km/h (2 Bft)
23.05.2011 15:50 21,7 C 18,0 C 12,3 C 25,1 C 25,1 C 3,4 C 46 % 90 % 89 % 1022,4 hPa 0,0 l/m 3,2 km/h (1 Bft) W-SW 247 5 min 2,3 UV-I 9,6 C 25,1 C 2,6 km/h (1 Bft)
23.05.2011 15:55 21,7 C 18,0 C 12,3 C 25,6 C 25,6 C 3,9 C 46 % 90 % 100 % 1022,4 hPa 0,0 l/m 2,6 km/h (1 Bft) S 180 5 min 2,2 UV-I 9,6 C 25,6 C 5,0 km/h (1 Bft)
23.05.2011 16:00 21,9 C 18,1 C 12,3 C 25,2 C 25,2 C 3,3 C 45 % 90 % 87 % 1022,4 hPa 0,0 l/m 4,0 km/h (1 Bft) SW 225 5 min 2,0 UV-I 9,4 C 25,2 C 5,3 km/h (1 Bft)
23.05.2011 16:10 21,5 C 18,1 C 12,3 C 25,1 C 25,1 C 3,6 C 43 % 90 % 95 % 1022,2 hPa 0,0 l/m 2,6 km/h (1 Bft) N 0 10 min 1,9 UV-I 8,4 C 25,1 C 3,7 km/h (1 Bft)
23.05.2011 16:15 21,5 C 18,2 C 12,3 C 25,2 C 25,2 C 3,7 C 44 % 90 % 97 % 1022,2 hPa 0,0 l/m 1,8 km/h (1 Bft) SO 135 5 min 1,8 UV-I 8,7 C 25,2 C 2,4 km/h (1 Bft)
23.05.2011 16:20 21,7 C 18,3 C 12,3 C 26,0 C 26,0 C 4,3 C 45 % 90 % 100 % 1022,2 hPa 0,0 l/m 1,8 km/h (1 Bft) W-SW 247 5 min 1,8 UV-I 9,2 C 26,0 C 4,2 km/h (1 Bft)
23.05.2011 16:25 21,9 C 18,3 C 12,3 C 26,0 C 26,0 C 4,1 C 46 % 90 % 100 % 1022,2 hPa 0,0 l/m 2,4 km/h (1 Bft) NW 315 5 min 1,8 UV-I 9,7 C 26,0 C 3,4 km/h (1 Bft)
23.05.2011 16:30 22,0 C 18,4 C 12,3 C 26,3 C 26,3 C 4,3 C 44 % 90 % 100 % 1022,1 hPa 0,0 l/m 2,4 km/h (1 Bft) NW 315 5 min 1,0 UV-I 9,2 C 26,3 C 3,1 km/h (1 Bft)
23.05.2011 16:35 21,8 C 18,4 C 12,3 C 26,4 C 26,4 C 4,6 C 45 % 90 % 100 % 1022,1 hPa 0,0 l/m 1,4 km/h (1 Bft) O-SO 112 5 min 1,0 UV-I 9,3 C 26,4 C 0,0 km/h (0 Bft)
23.05.2011 16:40 22,0 C 18,4 C 12,3 C 26,9 C 26,9 C 4,9 C 45 % 90 % 100 % 1022,1 hPa 0,0 l/m 1,4 km/h (1 Bft) O-NO 67 5 min 0,9 UV-I 9,5 C 26,9 C 2,4 km/h (1 Bft)
23.05.2011 16:45 22,3 C 18,4 C 12,3 C 27,0 C 27,0 C 4,7 C 46 % 90 % 100 % 1022,1 hPa 0,0 l/m 1,9 km/h (1 Bft) S-SW 202 5 min 0,9 UV-I 10,1 C 27,0 C 3,4 km/h (1 Bft)
23.05.2011 16:50 22,5 C 18,5 C 12,3 C 27,0 C 27,0 C 4,5 C 45 % 90 % 100 % 1021,6 hPa 0,0 l/m 2,1 km/h (1 Bft) NW 315 5 min 0,9 UV-I 10,0 C 27,0 C 1,9 km/h (1 Bft)
23.05.2011 16:55 22,7 C 18,5 C 12,3 C 27,3 C 27,3 C 4,6 C 45 % 90 % 100 % 1021,6 hPa 0,0 l/m 1,4 km/h (1 Bft) SW 225 5 min 1,1 UV-I 10,1 C 27,3 C 4,3 km/h (1 Bft)
23.05.2011 17:00 22,6 C 18,5 C 12,3 C 27,3 C 27,3 C 4,7 C 45 % 90 % 100 % 1021,6 hPa 0,0 l/m 1,6 km/h (1 Bft) S 180 5 min 1,2 UV-I 10,1 C 27,3 C 2,4 km/h (1 Bft)
23.05.2011 17:10 22,9 C 18,5 C 12,3 C 26,2 C 26,2 C 3,3 C 45 % 90 % 87 % 1021,4 hPa 0,0 l/m 3,4 km/h (1 Bft) N 0 10 min 1,1 UV-I 10,3 C 26,2 C 2,4 km/h (1 Bft)
23.05.2011 17:15 22,9 C 18,6 C 12,3 C 26,2 C 26,2 C 3,3 C 46 % 90 % 87 % 1021,4 hPa 0,0 l/m 2,9 km/h (1 Bft) SO 135 5 min 1,0 UV-I 10,7 C 26,2 C 0,0 km/h (0 Bft)
23.05.2011 17:20 22,9 C 18,6 C 22,5 C 26,6 C 26,6 C 3,7 C 44 % 51 % 97 % 1021,4 hPa 0,0 l/m 1,4 km/h (1 Bft) S-SO 157 5 min 1,0 UV-I 10,0 C 26,6 C 3,4 km/h (1 Bft)
23.05.2011 17:25 23,0 C 18,6 C 22,3 C 26,7 C 26,7 C 3,7 C 45 % 55 % 97 % 1021,4 hPa 0,0 l/m 1,1 km/h (1 Bft) SW 225 5 min 0,9 UV-I 10,4 C 26,7 C 0,0 km/h (0 Bft)
23.05.2011 17:30 22,9 C 18,6 C 21,9 C 26,8 C 26,8 C 3,9 C 42 % 51 % 100 % 1021,2 hPa 0,0 l/m 1,3 km/h (1 Bft) O-NO 67 5 min 0,8 UV-I 9,3 C 26,8 C 3,1 km/h (1 Bft)
23.05.2011 17:35 22,6 C 18,6 C 21,3 C 26,4 C 26,4 C 3,8 C 44 % 50 % 100 % 1021,2 hPa 0,0 l/m 1,4 km/h (1 Bft) O-SO 112 5 min 0,8 UV-I 9,7 C 26,4 C 0,0 km/h (0 Bft)
23.05.2011 17:40 22,6 C 18,6 C 20,9 C 26,2 C 26,2 C 3,6 C 43 % 52 % 95 % 1021,2 hPa 0,0 l/m 1,6 km/h (1 Bft) NO 45 5 min 0,7 UV-I 9,4 C 26,2 C 3,4 km/h (1 Bft)
23.05.2011 17:45 22,5 C 18,6 C 20,8 C 25,9 C 25,9 C 3,4 C 43 % 51 % 89 % 1021,2 hPa 0,0 l/m 1,6 km/h (1 Bft) O-NO 67 5 min 0,6 UV-I 9,3 C 25,9 C 2,3 km/h (1 Bft)
23.05.2011 17:50 22,2 C 18,7 C 20,7 C 25,5 C 25,5 C 3,3 C 45 % 52 % 87 % 1021,2 hPa 0,0 l/m 2,4 km/h (1 Bft) O-NO 67 5 min 0,5 UV-I 9,7 C 25,5 C 2,1 km/h (1 Bft)
23.05.2011 17:55 22,2 C 18,7 C 20,5 C 25,3 C 25,3 C 3,1 C 44 % 52 % 82 % 1021,2 hPa 0,0 l/m 1,9 km/h (1 Bft) O-NO 67 0 min 0,5 UV-I 9,4 C 25,3 C 3,7 km/h (1 Bft)
23.05.2011 18:00 22,2 C 18,7 C 20,5 C 25,1 C 25,1 C 2,9 C 43 % 52 % 76 % 1021,2 hPa 0,0 l/m 2,3 km/h (1 Bft) NO 45 0 min 0,5 UV-I 9,0 C 25,1 C 3,7 km/h (1 Bft)
23.05.2011 18:10 22,0 C 18,7 C 20,3 C 24,6 C 24,6 C 2,6 C 46 % 53 % 68 % 1021,0 hPa 0,0 l/m 3,2 km/h (1 Bft) N 0 0 min 0,4 UV-I 9,8 C 24,6 C 4,0 km/h (1 Bft)
23.05.2011 18:15 22,1 C 18,7 C 20,2 C 24,5 C 24,5 C 2,4 C 47 % 55 % 63 % 1021,0 hPa 0,0 l/m 2,6 km/h (1 Bft) O-NO 67 0 min 0,4 UV-I 10,3 C 24,5 C 0,0 km/h (0 Bft)
23.05.2011 18:20 22,2 C 18,7 C 20,3 C 24,5 C 24,5 C 2,3 C 46 % 54 % 61 % 1021,0 hPa 0,0 l/m 2,4 km/h (1 Bft) SO 135 0 min 0,3 UV-I 10,0 C 24,5 C 2,9 km/h (1 Bft)
23.05.2011 18:25 22,1 C 18,7 C 20,2 C 24,6 C 24,6 C 2,5 C 46 % 54 % 66 % 1021,0 hPa 0,0 l/m 2,9 km/h (1 Bft) O-NO 67 0 min 0,3 UV-I 9,9 C 24,6 C 4,8 km/h (1 Bft)
23.05.2011 18:30 22,0 C 18,7 C 20,2 C 24,3 C 24,3 C 2,3 C 46 % 53 % 61 % 1020,8 hPa 0,0 l/m 3,4 km/h (1 Bft) O-NO 67 0 min 0,3 UV-I 9,8 C 24,3 C 2,1 km/h (1 Bft)
23.05.2011 18:35 22,1 C 18,7 C 20,3 C 24,2 C 24,2 C 2,1 C 47 % 54 % 55 % 1020,8 hPa 0,0 l/m 3,1 km/h (1 Bft) NO 45 0 min 0,2 UV-I 10,3 C 24,2 C 4,8 km/h (1 Bft)
23.05.2011 18:40 21,9 C 18,8 C 20,1 C 23,8 C 23,8 C 1,9 C 46 % 54 % 50 % 1020,8 hPa 0,0 l/m 3,5 km/h (1 Bft) N-NO 22 0 min 0,2 UV-I 9,7 C 23,8 C 6,3 km/h (2 Bft)
23.05.2011 18:45 21,8 C 18,8 C 20,0 C 23,6 C 23,6 C 1,8 C 47 % 55 % 47 % 1020,8 hPa 0,0 l/m 4,7 km/h (1 Bft) O-NO 67 0 min 0,2 UV-I 10,0 C 23,6 C 6,0 km/h (2 Bft)
23.05.2011 18:50 21,8 C 18,8 C 20,1 C 23,5 C 23,5 C 1,7 C 47 % 55 % 45 % 1020,8 hPa 0,0 l/m 4,5 km/h (1 Bft) NO 45 0 min 0,2 UV-I 10,0 C 23,5 C 5,3 km/h (1 Bft)
23.05.2011 18:55 21,7 C 18,8 C 20,1 C 23,4 C 23,4 C 1,7 C 48 % 57 % 45 % 1020,8 hPa 0,0 l/m 4,2 km/h (1 Bft) N 360 0 min 0,1 UV-I 10,2 C 23,4 C 3,1 km/h (1 Bft)
23.05.2011 19:00 21,8 C 18,8 C 20,0 C 23,6 C 23,6 C 1,8 C 49 % 57 % 47 % 1020,8 hPa 0,0 l/m 3,4 km/h (1 Bft) NO 45 0 min 0,1 UV-I 10,6 C 23,6 C 3,4 km/h (1 Bft)
23.05.2011 19:10 21,9 C 18,8 C 19,9 C 23,8 C 23,8 C 1,9 C 48 % 58 % 50 % 1020,8 hPa 0,0 l/m 3,4 km/h (1 Bft) N 0 0 min 0,1 UV-I 10,4 C 23,8 C 4,2 km/h (1 Bft)
23.05.2011 19:15 21,9 C 18,8 C 19,9 C 23,6 C 23,6 C 1,7 C 48 % 58 % 45 % 1020,8 hPa 0,0 l/m 3,4 km/h (1 Bft) NO 45 0 min 0,1 UV-I 10,4 C 23,6 C 3,5 km/h (1 Bft)
23.05.2011 19:20 21,9 C 18,8 C 19,9 C 23,6 C 23,6 C 1,7 C 48 % 58 % 45 % 1020,8 hPa 0,0 l/m 3,4 km/h (1 Bft) O-NO 67 0 min 0,0 UV-I 10,4 C 23,6 C 4,2 km/h (1 Bft)
23.05.2011 19:25 21,9 C 18,8 C 19,9 C 23,4 C 23,4 C 1,5 C 49 % 58 % 39 % 1020,8 hPa 0,0 l/m 3,5 km/h (1 Bft) O 90 0 min 0,0 UV-I 10,7 C 23,4 C 4,0 km/h (1 Bft)
23.05.2011 19:30 21,6 C 18,8 C 19,9 C 23,1 C 23,1 C 1,5 C 49 % 58 % 39 % 1020,6 hPa 0,0 l/m 3,9 km/h (1 Bft) O-NO 67 0 min 0,0 UV-I 10,4 C 23,1 C 2,4 km/h (1 Bft)
23.05.2011 19:35 21,6 C 18,8 C 19,9 C 22,9 C 22,9 C 1,3 C 49 % 58 % 34 % 1020,6 hPa 0,0 l/m 3,1 km/h (1 Bft) NO 45 0 min 0,0 UV-I 10,4 C 22,9 C 2,1 km/h (1 Bft)
23.05.2011 19:40 21,4 C 18,8 C 19,9 C 22,6 C 22,6 C 1,2 C 51 % 58 % 32 % 1020,6 hPa 0,0 l/m 1,8 km/h (1 Bft) N-NO 22 0 min 0,0 UV-I 10,8 C 22,6 C 1,8 km/h (1 Bft)
23.05.2011 19:45 21,5 C 18,8 C 19,9 C 22,4 C 22,4 C 0,9 C 51 % 58 % 24 % 1020,6 hPa 0,0 l/m 1,1 km/h (1 Bft) NO 45 0 min 0,0 UV-I 10,9 C 22,4 C 0,0 km/h (0 Bft)
23.05.2011 19:50 21,5 C 18,8 C 19,9 C 22,3 C 22,3 C 0,8 C 51 % 58 % 21 % 1020,6 hPa 0,0 l/m 0,5 km/h (0 Bft) O-NO 67 0 min 0,0 UV-I 10,9 C 22,3 C 1,6 km/h (1 Bft)
23.05.2011 19:55 21,5 C 18,8 C 19,9 C 22,3 C 22,3 C 0,8 C 52 % 58 % 21 % 1020,6 hPa 0,0 l/m 0,2 km/h (0 Bft) NO 45 0 min 0,0 UV-I 11,2 C 22,3 C 0,0 km/h (0 Bft)
23.05.2011 20:00 21,2 C 18,8 C 19,9 C 22,1 C 22,1 C 0,9 C 52 % 58 % 24 % 1020,6 hPa 0,0 l/m 0,3 km/h (0 Bft) O-NO 67 0 min 0,0 UV-I 10,9 C 22,1 C 0,0 km/h (0 Bft)
23.05.2011 20:08 21,2 C 18,8 C 19,9 C 21,5 C 21,5 C 0,3 C 52 % 58 % 8 % 1020,6 hPa 0,0 l/m 0,2 km/h (0 Bft) N 0 0 min 0,0 UV-I 10,9 C 21,5 C 0,0 km/h (0 Bft)
23.05.2011 20:15 20,8 C 18,9 C 19,9 C 20,5 C 19,9 C 0,0 C 54 % 58 % 0 % 1020,6 hPa 0,0 l/m 0,0 km/h (0 Bft) NO 45 0 min 0,0 UV-I 11,1 C 19,9 C 0,0 km/h (0 Bft)
23.05.2011 20:20 20,5 C 18,9 C 19,9 C 20,0 C 19,1 C 0,0 C 55 % 58 % 0 % 1020,6 hPa 0,0 l/m 0,0 km/h (0 Bft) N-NO 22 0 min 0,0 UV-I 11,1 C 19,1 C 0,0 km/h (0 Bft)
23.05.2011 20:25 20,4 C 18,9 C 19,9 C 19,8 C 18,7 C 0,0 C 55 % 58 % 0 % 1020,6 hPa 0,0 l/m 0,0 km/h (0 Bft) N-NO 22 0 min 0,0 UV-I 11,1 C 18,7 C 0,0 km/h (0 Bft)
23.05.2011 20:30 20,1 C 18,8 C 18,0 C 19,5 C 18,2 C 0,0 C 57 % 68 % 0 % 1020,4 hPa 0,0 l/m 0,0 km/h (0 Bft) O-NO 67 0 min 0,0 UV-I 11,3 C 18,2 C 0,0 km/h (0 Bft)
23.05.2011 20:35 19,9 C 18,9 C 17,9 C 19,2 C 17,9 C 0,0 C 57 % 68 % 0 % 1020,4 hPa 0,0 l/m 0,0 km/h (0 Bft) NO 45 0 min 0,0 UV-I 11,1 C 17,9 C 0,0 km/h (0 Bft)
23.05.2011 20:40 19,8 C 18,9 C 17,6 C 19,0 C 17,4 C 0,0 C 60 % 70 % 0 % 1020,4 hPa 0,0 l/m 0,0 km/h (0 Bft) O-NO 67 0 min 0,0 UV-I 11,8 C 17,4 C 0,0 km/h (0 Bft)
23.05.2011 20:45 19,7 C 18,9 C 17,5 C 18,8 C 17,1 C 0,0 C 61 % 72 % 0 % 1020,4 hPa 0,0 l/m 0,0 km/h (0 Bft) SW 225 0 min 0,0 UV-I 12,0 C 17,1 C 0,0 km/h (0 Bft)
23.05.2011 20:50 19,6 C 18,8 C 17,3 C 18,6 C 16,6 C 0,0 C 62 % 72 % 0 % 1020,3 hPa 0,0 l/m 0,0 km/h (0 Bft) O-NO 67 0 min 0,0 UV-I 12,1 C 16,6 C 0,0 km/h (0 Bft)
23.05.2011 20:55 19,4 C 18,9 C 17,2 C 18,4 C 16,3 C 0,0 C 62 % 72 % 0 % 1020,3 hPa 0,0 l/m 0,0 km/h (0 Bft) O-NO 67 0 min 0,0 UV-I 11,9 C 16,3 C 0,0 km/h (0 Bft)
23.05.2011 21:00 19,1 C 18,9 C 16,9 C 18,1 C 16,0 C 0,0 C 62 % 74 % 0 % 1020,3 hPa 0,0 l/m 0,2 km/h (0 Bft) SW 225 0 min 0,0 UV-I 11,6 C 16,0 C 1,9 km/h (1 Bft)
23.05.2011 21:10 18,8 C 19,0 C 16,6 C 17,6 C 15,3 C 0,0 C 65 % 75 % 0 % 1020,6 hPa 0,0 l/m 0,3 km/h (0 Bft) N 0 0 min 0,0 UV-I 12,1 C 15,3 C 0,0 km/h (0 Bft)
23.05.2011 21:15 18,5 C 18,9 C 16,4 C 17,4 C 15,1 C 0,0 C 66 % 76 % 0 % 1020,6 hPa 0,0 l/m 0,0 km/h (0 Bft) N-NO 22 0 min 0,0 UV-I 12,0 C 15,1 C 0,0 km/h (0 Bft)
23.05.2011 21:20 18,5 C 18,9 C 16,3 C 17,2 C 14,7 C 0,0 C 68 % 79 % 0 % 1020,6 hPa 0,0 l/m 0,0 km/h (0 Bft) SW 225 0 min 0,0 UV-I 12,5 C 14,7 C 0,0 km/h (0 Bft)
23.05.2011 21:25 18,4 C 18,9 C 16,1 C 17,1 C 14,4 C 0,0 C 68 % 78 % 0 % 1020,6 hPa 0,0 l/m 0,0 km/h (0 Bft) SW 225 0 min 0,0 UV-I 12,4 C 14,4 C 0,0 km/h (0 Bft)
23.05.2011 21:30 18,1 C 18,9 C 15,8 C 16,8 C 14,2 C 0,0 C 69 % 78 % 0 % 1020,3 hPa 0,0 l/m 0,0 km/h (0 Bft) SW 225 0 min 0,0 UV-I 12,3 C 14,2 C 0,0 km/h (0 Bft)
23.05.2011 21:35 18,0 C 18,9 C 15,7 C 16,6 C 13,9 C 0,0 C 70 % 80 % 0 % 1020,3 hPa 0,0 l/m 0,0 km/h (0 Bft) SW 225 0 min 0,0 UV-I 12,4 C 13,9 C 0,0 km/h (0 Bft)
23.05.2011 21:40 17,8 C 19,0 C 15,6 C 16,4 C 13,6 C 0,0 C 70 % 80 % 0 % 1020,3 hPa 0,0 l/m 0,0 km/h (0 Bft) N 360 0 min 0,0 UV-I 12,3 C 13,6 C 0,0 km/h (0 Bft)
23.05.2011 21:45 17,7 C 19,0 C 15,5 C 16,3 C 13,4 C 0,0 C 71 % 81 % 0 % 1020,3 hPa 0,0 l/m 0,0 km/h (0 Bft) N 360 0 min 0,0 UV-I 12,4 C 13,4 C 0,0 km/h (0 Bft)
23.05.2011 21:50 17,2 C 19,0 C 15,2 C 15,9 C 13,4 C 0,0 C 72 % 81 % 0 % 1020,3 hPa 0,0 l/m 0,2 km/h (0 Bft) N 360 0 min 0,0 UV-I 12,1 C 13,4 C 0,0 km/h (0 Bft)
23.05.2011 21:55 17,3 C 18,9 C 15,2 C 15,9 C 13,2 C 0,0 C 73 % 82 % 0 % 1020,3 hPa 0,0 l/m 0,2 km/h (0 Bft) W-SW 247 0 min 0,0 UV-I 12,4 C 13,2 C 0,0 km/h (0 Bft)
23.05.2011 22:00 17,2 C 18,9 C 15,0 C 15,8 C 12,9 C 0,0 C 73 % 82 % 0 % 1020,3 hPa 0,0 l/m 0,2 km/h (0 Bft) W-SW 247 0 min 0,0 UV-I 12,3 C 12,9 C 0,0 km/h (0 Bft)
23.05.2011 22:10 17,1 C 18,9 C 14,8 C 15,5 C 12,3 C 0,0 C 74 % 83 % 0 % 1020,2 hPa 0,0 l/m 0,0 km/h (0 Bft) N 0 0 min 0,0 UV-I 12,4 C 12,3 C 0,0 km/h (0 Bft)
23.05.2011 22:15 17,1 C 18,9 C 14,8 C 15,5 C 12,3 C 0,0 C 74 % 83 % 0 % 1020,2 hPa 0,0 l/m 0,0 km/h (0 Bft) SW 225 0 min 0,0 UV-I 12,4 C 12,3 C 0,0 km/h (0 Bft)
23.05.2011 22:20 16,9 C 19,0 C 14,7 C 15,3 C 12,1 C 0,0 C 74 % 83 % 0 % 1020,2 hPa 0,0 l/m 0,0 km/h (0 Bft) SW 225 0 min 0,0 UV-I 12,2 C 12,1 C 0,0 km/h (0 Bft)
23.05.2011 22:25 16,7 C 19,0 C 14,5 C 15,1 C 12,0 C 0,0 C 75 % 83 % 0 % 1020,2 hPa 0,0 l/m 0,0 km/h (0 Bft) SW 225 0 min 0,0 UV-I 12,2 C 12,0 C 0,0 km/h (0 Bft)
23.05.2011 22:30 16,7 C 19,0 C 14,3 C 15,1 C 11,9 C 0,0 C 75 % 83 % 0 % 1020,6 hPa 0,0 l/m 0,0 km/h (0 Bft) SW 225 0 min 0,0 UV-I 12,2 C 11,9 C 0,0 km/h (0 Bft)
23.05.2011 22:35 16,4 C 19,0 C 14,2 C 14,9 C 11,8 C 0,0 C 75 % 84 % 0 % 1020,6 hPa 0,0 l/m 0,0 km/h (0 Bft) SW 225 0 min 0,0 UV-I 12,0 C 11,8 C 0,0 km/h (0 Bft)
23.05.2011 22:40 16,4 C 19,0 C 14,3 C 14,8 C 11,7 C 0,0 C 75 % 84 % 0 % 1020,6 hPa 0,0 l/m 0,0 km/h (0 Bft) SW 225 0 min 0,0 UV-I 12,0 C 11,7 C 0,0 km/h (0 Bft)
23.05.2011 22:45 16,3 C 19,0 C 14,1 C 14,7 C 11,5 C 0,0 C 76 % 85 % 0 % 1020,6 hPa 0,0 l/m 0,0 km/h (0 Bft) SW 225 0 min 0,0 UV-I 12,1 C 11,5 C 0,0 km/h (0 Bft)
23.05.2011 22:50 16,1 C 19,0 C 13,9 C 14,5 C 11,4 C 0,0 C 76 % 84 % 0 % 1020,3 hPa 0,0 l/m 0,0 km/h (0 Bft) SW 225 0 min 0,0 UV-I 11,9 C 11,4 C 0,0 km/h (0 Bft)
23.05.2011 22:55 16,1 C 19,0 C 13,9 C 14,5 C 11,3 C 0,0 C 77 % 85 % 0 % 1020,3 hPa 0,0 l/m 0,0 km/h (0 Bft) W-SW 247 0 min 0,0 UV-I 12,1 C 11,3 C 0,0 km/h (0 Bft)
23.05.2011 23:00 16,0 C 19,0 C 13,7 C 14,4 C 11,3 C 0,0 C 76 % 85 % 0 % 1020,3 hPa 0,0 l/m 0,0 km/h (0 Bft) W-SW 247 0 min 0,0 UV-I 11,8 C 11,3 C 0,0 km/h (0 Bft)
23.05.2011 23:10 15,6 C 18,9 C 13,5 C 14,1 C 11,0 C 0,0 C 76 % 85 % 0 % 1021,0 hPa 0,0 l/m 0,0 km/h (0 Bft) N 0 0 min 0,0 UV-I 11,4 C 11,0 C 0,0 km/h (0 Bft)
23.05.2011 23:15 15,5 C 19,0 C 13,4 C 14,0 C 10,9 C 0,0 C 76 % 85 % 0 % 1021,0 hPa 0,0 l/m 0,0 km/h (0 Bft) W-SW 247 0 min 0,0 UV-I 11,3 C 10,9 C 0,0 km/h (0 Bft)
23.05.2011 23:20 15,1 C 19,0 C 13,1 C 13,7 C 10,8 C 0,0 C 76 % 85 % 0 % 1021,0 hPa 0,0 l/m 0,0 km/h (0 Bft) SW 225 0 min 0,0 UV-I 10,9 C 10,8 C 0,0 km/h (0 Bft)
23.05.2011 23:25 15,1 C 18,9 C 13,0 C 13,6 C 10,7 C 0,0 C 77 % 85 % 0 % 1021,0 hPa 0,0 l/m 0,0 km/h (0 Bft) W-SW 247 0 min 0,0 UV-I 11,1 C 10,7 C 0,0 km/h (0 Bft)
23.05.2011 23:30 15,1 C 18,9 C 13,0 C 13,6 C 10,7 C 0,0 C 78 % 85 % 0 % 1020,3 hPa 0,0 l/m 0,0 km/h (0 Bft) W-SW 247 0 min 0,0 UV-I 11,3 C 10,7 C 0,0 km/h (0 Bft)
23.05.2011 23:35 15,1 C 18,9 C 13,1 C 13,6 C 10,6 C 0,0 C 78 % 86 % 0 % 1020,3 hPa 0,0 l/m 0,0 km/h (0 Bft) W-SW 247 0 min 0,0 UV-I 11,3 C 10,6 C 0,0 km/h (0 Bft)
23.05.2011 23:40 15,1 C 18,9 C 12,9 C 13,6 C 10,5 C 0,0 C 77 % 87 % 0 % 1020,3 hPa 0,0 l/m 0,0 km/h (0 Bft) W-SW 247 0 min 0,0 UV-I 11,1 C 10,5 C 0,0 km/h (0 Bft)
23.05.2011 23:45 14,8 C 18,9 C 12,8 C 13,3 C 10,3 C 0,0 C 77 % 86 % 0 % 1020,3 hPa 0,0 l/m 0,0 km/h (0 Bft) W-SW 247 0 min 0,0 UV-I 10,8 C 10,3 C 0,0 km/h (0 Bft)
23.05.2011 23:50 14,8 C 18,9 C 12,7 C 13,3 C 10,2 C 0,0 C 78 % 86 % 0 % 1020,2 hPa 0,0 l/m 0,0 km/h (0 Bft) W-SW 247 0 min 0,0 UV-I 11,0 C 10,2 C 0,0 km/h (0 Bft)
23.05.2011 23:55 14,8 C 18,9 C 12,7 C 13,3 C 10,2 C 0,0 C 78 % 87 % 0 % 1020,2 hPa 0,0 l/m 0,0 km/h (0 Bft) W-SW 247 0 min 0,0 UV-I 11,0 C 10,2 C 0,0 km/h (0 Bft)
_ Min-Zeit 05:55 11:25 04:20 05:55 23:50 00:00 17:30 17:35 00:00 00:00 - 00:40 - - - 00:00 11:35 23:50 00:09
Minimum _ 13,1 C 17,4 C 12,3 C 12,3 C 10,2 C 0,0 C 42 % 50 % 0 % 1016,9 hPa - 0,0 km/h (0 Bft) - - - 0,0 UV-I 7,7 C 10,2 C 0,0 km/h (0 Bft)
_ Max-Zeit 17:25 00:00 17:20 16:55 16:55 10:00 00:00 00:00 07:30 09:50 00:00 01:10 - - 08:10 13:10 00:00 16:55 01:15
Maximum _ 23,0 C 19,0 C 22,5 C 27,3 C 27,3 C 7,1 C 87 % 95 % 100 % 1025,1 hPa 0,0 l/m 6,6 km/h
N (2 Bft)
- - 10 min 3,9 UV-I 14,1 C 27,3 C 16,9 km/h
N-NW (3 Bft)
Durchschnitt _ 18,0 C 18,2 C 14,0 C 19,6 C 18,8 C 2,0 C 63 % 84 % 46 % 1022,0 hPa #0,0 l/m 1,7 km/h (1 Bft) SW - #9:05 h 1,7 UV-I 10,4 C 18,8 C 2,3 km/h (1 Bft)
2013 www.wetterstation-wechselburg.de